Simultaneous Nadir Overpasses (SNOs) Predictions

Prediction of SNOs between METOP-B and NOAA-19 Satellite Orbit:

Table of predicted SNOs for the next 14.0 days since TLE Epoch: 3/8/2025
Index Date (METOP-B) Time (METOP-B) Lat,Lon (METOP-B) SZA (METOP-B ) Date (NOAA-19) Time (NOAA-19) Lat,Lon (NOAA-19) SZA (NOAA-19 ) Distance(km) Time Diff (sec)
1 03/11/2025 16:02:01 80.70, 10.76 90.03 03/11/2025 16:00:58 80.70, 10.64 89.97 2.18 63
2 03/11/2025 16:52:41 -80.68, 178.28 89.97 03/11/2025 16:51:54 -80.68, 178.36 89.99 1.35 47
3 03/11/2025 17:43:22 80.68, -14.32 90.03 03/11/2025 17:42:53 80.67, -14.22 90.03 1.81 29
4 03/11/2025 18:34:02 -80.66, 153.21 89.96 03/11/2025 18:33:50 -80.67, 153.13 89.98 1.35 12
5 03/11/2025 19:24:43 80.66, -39.39 90.04 03/11/2025 19:24:49 80.66, -39.44 90.04 0.83 6
6 03/11/2025 20:15:23 -80.65, 128.13 89.96 03/11/2025 20:15:45 -80.64, 128.26 89.92 2.54 22
7 03/11/2025 21:06:04 80.64, -64.47 90.05 03/11/2025 21:06:44 80.63, -64.31 90.09 3.18 40
8 03/11/2025 21:56:44 -80.63, 103.05 89.95 03/11/2025 21:57:41 -80.63, 103.04 89.91 0.23 57



Historial Predications of SNOs between METOP-B and NOAA-19
